INTELSAT 26 (IS-26) (24732 NORAD) Tracking and Keplerian Element Data

This shows tracking and keplerian element data for the satellite.

Feedback or suggestion? Click here.




ElementValue
Catalog24732
NameINTELSAT 26 (IS-26)
Epoch Orbit7831
Epoch Day201.15272059
Epoch Year2018
RAAN47.3006
Inclination8.0506
Eccentricity0.0003375
Argument of Perigee42.7184
Mean Anonmoly328.614
Mean Motion1.00272656
Decay Rate-3.1E-07
L11 24732U 97007A 18201.15272059 -.00000031 00000-0 00000+0 0 9998
L22 24732 8.0506 47.3006 0003375 42.7184 328.6140 1.00272656 78315

Live tracking and technical data element details for INTELSAT 26 (IS-26) (NORAD 24732). INTELSAT 26 (IS-26) can be tracked NOW for your location showing map with azimuth and elevation plus other details from your city location.

Track the satellite on the map from your city or location and see movement details for azimuth, elevation, latitude, longitude, range, height, and movement on the map or in text.







IsCatalogInMostPopularTable: catalog: 24732, numindb: 31
Update: records affected: 1



GetName: 24732 INTELSAT 26 (IS-26)

Hit Count: updated at: Sat, 21 Jul 2018 07:56:20 GMT